Regional Weather Roundup
Issued by NWS Cleveland, OH

Home | Current Version | Previous Version | Text Only | Print | Product List | Glossary Off
Versions: 1 2 3 4 5 6 7 8 9 10 11 12 13 14 15 16 17 18 19 20 21 22 23 24 25 26 27 28 29 30 31 32 33 34 35 36 37 38 39 40 41 42 43 44 45 46 47 48 49 50

742
ASUS41 KCLE 111402
RWRCLE
OHIO REGIONAL WEATHER ROUNDUP
NATIONAL WEATHER SERVICE CLEVELAND, OH
900 AM EST SUN DEC 11 2016

NOTE: "FAIR" INDICATES FEW OR NO CLOUDS BELOW 12,000 FEET WITH NO
SIGNIFICANT WEATHER AND/OR OBSTRUCTIONS TO VISIBILITY.

OHZ001>008-015>018-024>027-034-035-043-044-111500-
   NORTHWEST OHIO

CITY           SKY/WX    TMP DP  RH WIND       PRES   REMARKS
DEFIANCE       LGT SNOW  26  21  81 SE10      30.21F WCI  16
FINDLAY        CLOUDY    27  21  78 S14G21    30.24F WCI  16
TOLEDO EXPRESS LGT SNOW  24  23  96 SE8       30.24F FOG     WCI  15
TOLEDO EXEC    CLOUDY    26  24  92 S13       30.27S FOG     WCI  15
LIMA           LGT SNOW  26  22  84 SE14      30.21F FOG     WCI  14
$$

OHZ009>014-019>023-028>033-038-089-111500-
   NORTHEAST OHIO

CITY           SKY/WX    TMP DP  RH WIND       PRES   REMARKS
CLE-HOPKINS    LGT SNOW  26  20  77 S10       30.32F WCI  16
CLE-LAKEFRONT  LGT SNOW  26  20  77 SE18      30.30F WCI  13
CUY CO. ARPT   LGT SNOW  25  21  86 S9        30.31F WCI  15
LORAIN-ELYRIA  LGT SNOW  24  19  81 S12       30.29F WCI  13
ASHTABULA      LGT SNOW  23  20  88 S10       30.33F FOG     WCI  12
AKRON-CANTON   LGT SNOW  24  19  81 S12       30.32S FOG     WCI  13
WOOSTER        CLOUDY    23  19  85 S10       30.31F WCI  12
MANSFIELD      FLURRIES  23  21  92 SE14      30.27F WCI  11
YOUNGSTOWN     LGT SNOW  23  19  85 SE8       30.33F WCI  14
$$

OHZ042-051>053-060>062-070>072-077>081-111500-
  SOUTHWEST OHIO

CITY           SKY/WX    TMP DP  RH WIND       PRES   REMARKS
CINC-COVINGTON CLOUDY    31  18  58 SE10      30.23F WCI  22
CINC-LUNKEN    CLOUDY    32  20  61 S7        30.27F WCI  26
HAMILTON       CLOUDY    32  19  58 VRB5      30.26F WCI  27
DAYTON         CLOUDY    27  19  72 SE15      30.23F WCI  15
WRIGHT-PAT AFB CLOUDY    29  19  68 SE9       30.24F WCI  20
DAYTON GENERAL CLOUDY    30  17  58 SE10      30.23F WCI  21
WILMINGTON     CLOUDY    29  18  63 SE9       30.25F WCI  20
$$

OHZ036-037-039>041-045>050-054>059-063>069-073>076-082>088-111500-
  CENTRAL AND SOUTHEAST OHIO

CITY           SKY/WX    TMP DP  RH WIND       PRES   REMARKS
COLUMBUS       CLOUDY    26  22  84 SE10      30.29F WCI  16
OSU AIRPORT    CLOUDY    26  21  81 SE12      30.28F WCI  16
BOLTON FIELD   CLOUDY    27  21  80 SE10      30.28F WCI  17
RICKENBACK AFB   N/A     27  20  74 SE10      30.28F WCI  17
NEWARK         CLOUDY    25  20  81 SE6       30.31F WCI  18
MARION         CLOUDY    25  21  85 S13G23    30.27F FOG     WCI  14
LANCASTER      CLOUDY    27  19  72 SE13      30.31F WCI  16
ZANESVILLE     CLOUDY    25  20  81 SE7       30.34S WCI  17
NEW PHILLY     NOT AVBL
$$




USA.gov is the U.S. government's official web portal to all federal, state and local government web resources and services.